[[{"header":{"parameterUnit":"m.s-1","parameterCategory":2,"la1":30.2991,"la2":30.254,"lo1":-89.0895,"lo2":-89.0444,"dy":0.0017,"dx":0.0017,"nx":28,"ny":28,"refTime":"2024-05-25T03:00:00:Z","depth":"0","parameterNumber":2,"parameterNumberName":"U-component_of_CURRENTS"},"data":[0,0,0,0,0,0,0,0,0,0,0,0,0,0,0,0,0,0,0,0,0,0,0,0,0,0,0,0,0,0,0,0,0,0,0,0,0,0,0,0,0,0,0,0,0,0,0,0,0,0,0,0,0,0,0,0,0,0,0.2741,0.2741,0,0.2744,0.2744,0.2744,0.2725,0.2725,0.2725,0.2724,0.2707,0.2707,0.2707,0,0,0,0,0,0,0,0,0,0,0,0,0,0.2742,0.2742,0.2741,0.2741,0.2741,0.2744,0.2744,0.2744,0.2725,0.2725,0.2725,0.2724,0.2707,0.2707,0.2707,0,0,0,0,0,0,0,0,0,0,0,0,0,0.2741,0.2742,0.2741,0.2734,0.2733,0.2744,0.2744,0.2744,0.2726,0.2725,0.2724,0.2724,0.2707,0.2707,0.2707,0.2717,0,0,0.2706,0.2706,0,0,0,0,0,0,0,0,0.2741,0.2741,0.2735,0.2734,0.2734,0.2735,0.2738,0.2734,0.2726,0.2727,0.2724,0.2724,0.2716,0.2715,0.2715,0.2716,0.2715,0.2706,0.2706,0.2706,0.2706,0,0,0,0,0,0,0,0.2741,0.2741,0.274,0.2735,0.2734,0.2738,0.2737,0.2737,0.2723,0.2727,0.2726,0.2729,0.2715,0.2715,0.2714,0.2715,0.2706,0.2706,0.2706,0.2706,0.2762,0.2763,0,0,0,0,0,0,0.2744,0.2741,0.274,0.2741,0.2738,0.2739,0.2737,0.2734,0.2723,0.2722,0.2729,0.2728,0.2715,0.2714,0.2713,0.2747,0.2706,0.2706,0.2705,0.276,0.2762,0.2764,0,0,0,0,0,0,0.2744,0.2743,0.274,0.2743,0.2743,0.2739,0.2736,0.2734,0.2739,0.2726,0.2723,0.2735,0.2715,0.2714,0.2727,0.2746,0.2706,0.2705,0.2758,0.2761,0.2763,0.2801,0,0,0,0,0,0,0.2744,0.2743,0.2743,0.2743,0.2743,0.2755,0.2736,0.2735,0.2742,0.274,0.273,0.2728,0.2714,0.2727,0.2727,0.2745,0.2705,0.2756,0.276,0.2762,0.2798,0.2804,0.281,0,0,0,0,0,0.2743,0.2744,0.2743,0.2743,0.2742,0.2755,0.2756,0.2751,0.2743,0.2751,0.2748,0.2728,0.2746,0.2729,0.2727,0.2746,0.2755,0.2759,0.2762,0.2795,0.2803,0.281,0,0,0,0,0,0,0.2742,0.2742,0.2741,0.2741,0.2753,0.2753,0.2758,0.2758,0.2762,0.2759,0.2744,0.2743,0.2764,0.2755,0.2736,0.2774,0.2749,0.2753,0.2775,0.2782,0.2788,0.2798,0.2705,0,0,0,0,0,0.2743,0.2743,0.2751,0.2752,0.2758,0.2761,0.2766,0.2767,0.277,0.2771,0.2763,0.2765,0.2779,0.2779,0.2786,0.2802,0.2807,0.2816,0.2823,0.2828,0.2838,0.2875,0.2885,0.2776,0.2776,0.2776,0,0,0.274,0.2743,0.2741,0.2752,0.2757,0.277,0.2762,0.2775,0.2787,0.2769,0.2779,0.2786,0.2791,0.2812,0.2821,0.2804,0.286,0.2832,0.2836,0.2844,0.288,0.289,0.29,0.2778,0.2778,0.2777,0,0,0.2737,0.2741,0.274,0.2755,0.2772,0.278,0.2788,0.2795,0.2801,0.2818,0.2816,0.2841,0.2842,0.2858,0.2865,0.2913,0.2896,0.2912,0.2943,0.2979,0.2988,0.2997,0.3007,0.3015,0.2909,0.2909,0.291,0,0.2735,0.2733,0.2745,0.2756,0.2767,0.2786,0.2797,0.2813,0.2824,0.2839,0.2826,0.2867,0.2868,0.2913,0.2931,0.2927,0.2934,0.291,0.2987,0.2995,0.3002,0.3011,0.302,0.2912,0.2911,0.2911,0.2911,0,0.2733,0.2738,0.2743,0.2761,0.2779,0.2794,0.2821,0.2843,0.2852,0.2868,0.2913,0.2925,0.295,0.2959,0.2957,0.3017,0.3,0.2993,0.2964,0.3016,0.3021,0.303,0.2915,0.2914,0.2913,0.2913,0,0,0.2709,0.2734,0.2735,0.2743,0.2783,0.2794,0.2834,0.2873,0.2902,0.2926,0.2963,0.3003,0.3016,0.3028,0.3035,0.3068,0.3125,0.3054,0.3054,0.3057,0.3189,0.3128,0.3131,0.3129,0.3131,0.3132,0.3167,0,0.2703,0.2715,0.2734,0.2752,0.2763,0.2803,0.2837,0.2881,0.292,0.2963,0.3006,0.3044,0.304,0.3057,0.3095,0.3125,0.3152,0.3115,0.3145,0.3146,0.308,0.3141,0.3028,0.3046,0.3176,0.3177,0.3178,0,0.2688,0.2702,0.2711,0.2747,0.2756,0.2775,0.2839,0.2874,0.2957,0.2986,0.3045,0.3079,0.3147,0.3129,0.3207,0.3182,0.3192,0.3207,0.3208,0.3146,0.3102,0.3019,0.3057,0.3008,0.3191,0.319,0.3189,0,0.2654,0.2683,0.2686,0.2699,0.2747,0.2766,0.2801,0.2881,0.2925,0.3009,0.3055,0.3126,0.3172,0.3211,0.3252,0.3233,0.3327,0.3299,0.325,0.3244,0.3153,0.3135,0.3142,0.3351,0.3351,0.3351,0.3351,0,0.2631,0.2634,0.267,0.2671,0.2689,0.274,0.278,0.2831,0.2925,0.298,0.3064,0.3122,0.3199,0.3264,0.3277,0.3297,0.3347,0.3271,0.3261,0.3161,0.3145,0.31,0.3085,0.3352,0.3352,0.3351,0.3351,0,0.2582,0.2604,0.2609,0.2654,0.2666,0.2681,0.2758,0.2798,0.2895,0.2976,0.3009,0.314,0.3216,0.3282,0.3349,0.3325,0.3249,0.3337,0.3203,0.3176,0.3052,0.3043,0.2839,0.2767,0.3277,0.3276,0.3275,0,0.2553,0.255,0.2579,0.2583,0.2597,0.2633,0.2661,0.276,0.2813,0.2976,0.3011,0.3137,0.3198,0.3284,0.3283,0.3297,0.3205,0.3175,0.3117,0.3045,0.3028,0.284,0.2781,0.3008,0.3005,0.3002,0.3,0,0.2503,0.2511,0.2518,0.2524,0.2539,0.2561,0.2616,0.2656,0.2779,0.2853,0.2958,0.3032,0.3146,0.3128,0.3165,0.3149,0.3009,0.312,0.3092,0.2862,0.2611,0.2537,0.2974,0.2978,0.298,0.2982,0.2983,0.2984,0.2463,0.2453,0.246,0.2454,0.247,0.2479,0.2466,0.2541,0.2597,0.2687,0.283,0.2889,0.2982,0.3024,0.2995,0.2897,0.2851,0.2799,0.2806,0.263,0.2513,0.2889,0.2852,0.2853,0.2854,0.2855,0.2856,0,0.2401,0.2394,0.2391,0.2372,0.2348,0.2387,0.2417,0.2391,0.2397,0.2529,0.2599,0.2694,0.2693,0.2747,0.2719,0.2615,0.2455,0.2538,0.2286,0.226,0.2655,0.2602,0.2451,0.2451,0.2451,0.2451,0.2451,0.2452,0.2371,0.2335,0.2324,0.2249,0.2233,0.2167,0.2156,0.2137,0.2189,0.2225,0.2278,0.238,0.252,0.2541,0.2452,0.2403,0.2229,0.2062,0.2086,0.2437,0.2462,0.2486,0.2433,0.225,0.2249,0.1555,0.155,0.1547]},{"header":{"parameterUnit":"m.s-1","parameterCategory":2,"la1":30.2991,"la2":30.254,"lo1":-89.0895,"lo2":-89.0444,"dy":0.0017,"dx":0.0017,"nx":28,"ny":28,"refTime":"2024-05-25T03:00:00:Z","depth":"0","parameterNumber":3,"parameterNumberName":"V-component_of_CURRENTS"},"data":[0,0,0,0,0,0,0,0,0,0,0,0,0,0,0,0,0,0,0,0,0,0,0,0,0,0,0,0,0,0,0,0,0,0,0,0,0,0,0,0,0,0,0,0,0,0,0,0,0,0,0,0,0,0,0,0,0,0,0.0415,0.0415,0,0.0394,0.0394,0.0393,0.0372,0.0372,0.0372,0.0371,0.0328,0.0327,0.0327,0,0,0,0,0,0,0,0,0,0,0,0,0,0.0397,0.0398,0.0415,0.0415,0.0414,0.0394,0.0394,0.0393,0.0372,0.0372,0.0372,0.0371,0.0329,0.0328,0.0326,0,0,0,0,0,0,0,0,0,0,0,0,0,0.0393,0.0398,0.0415,0.0402,0.0401,0.0394,0.0394,0.0393,0.0372,0.0372,0.0371,0.0371,0.0329,0.0328,0.0326,0.0324,0,0,0.0322,0.0321,0,0,0,0,0,0,0,0,0.0393,0.0393,0.0404,0.0403,0.0401,0.0386,0.0372,0.0369,0.0372,0.0382,0.0371,0.0371,0.0347,0.0344,0.0339,0.0322,0.032,0.0322,0.0321,0.032,0.032,0,0,0,0,0,0,0,0.0394,0.0394,0.0405,0.0404,0.0402,0.0384,0.0384,0.0371,0.0365,0.0381,0.038,0.0379,0.0345,0.0341,0.0338,0.0319,0.0322,0.0321,0.032,0.0319,0.0298,0.0299,0,0,0,0,0,0,0.0401,0.0395,0.0406,0.0405,0.0398,0.0385,0.0384,0.0391,0.0366,0.0362,0.0379,0.0378,0.0343,0.034,0.0337,0.0348,0.032,0.0319,0.0318,0.0298,0.0298,0.0299,0,0,0,0,0,0,0.0401,0.0402,0.0407,0.0399,0.0399,0.0386,0.0393,0.039,0.0389,0.0365,0.036,0.0381,0.0343,0.0339,0.0331,0.0345,0.0318,0.0317,0.0298,0.0298,0.0299,0.036,0,0,0,0,0,0,0.04,0.0402,0.0409,0.04,0.04,0.0413,0.0393,0.039,0.0389,0.0387,0.0365,0.036,0.0342,0.0333,0.0329,0.0343,0.0316,0.0297,0.0298,0.0298,0.0358,0.0363,0.0367,0,0,0,0,0,0.04,0.0413,0.041,0.0411,0.041,0.0413,0.0412,0.04,0.039,0.0396,0.0377,0.0361,0.0334,0.0332,0.0328,0.0341,0.0297,0.0298,0.0298,0.0356,0.0362,0.0367,0,0,0,0,0,0,0.0408,0.0412,0.0408,0.0422,0.0421,0.041,0.0415,0.0405,0.0395,0.0393,0.0366,0.0361,0.0358,0.034,0.0339,0.0336,0.0312,0.0312,0.0358,0.0363,0.0367,0.0384,0.0315,0,0,0,0,0,0.0414,0.0427,0.0424,0.0436,0.0438,0.0427,0.0426,0.042,0.041,0.0406,0.0387,0.0369,0.0357,0.0352,0.0336,0.0338,0.0314,0.0342,0.0347,0.0351,0.0361,0.0337,0.034,0.0301,0.0301,0.0301,0,0,0.0418,0.0424,0.043,0.0438,0.0436,0.0449,0.0426,0.0432,0.0444,0.0402,0.0408,0.0383,0.0359,0.036,0.0357,0.0348,0.0348,0.0352,0.0356,0.0363,0.0338,0.0342,0.0345,0.0302,0.0301,0.0301,0,0,0.044,0.0442,0.0461,0.0467,0.0472,0.0468,0.0472,0.0465,0.0464,0.0467,0.0438,0.0424,0.0406,0.0393,0.0384,0.0404,0.0371,0.0396,0.0438,0.0415,0.0419,0.0421,0.0393,0.0393,0.0402,0.0402,0.0402,0,0.0445,0.0473,0.0466,0.0488,0.05,0.048,0.0505,0.0502,0.0492,0.0498,0.0478,0.045,0.0425,0.043,0.0434,0.0417,0.0394,0.0422,0.0423,0.0425,0.0426,0.0397,0.0396,0.0405,0.0405,0.0405,0.0404,0,0.0484,0.0506,0.0519,0.0543,0.0551,0.057,0.0569,0.0576,0.0567,0.056,0.0559,0.052,0.0506,0.0493,0.047,0.0472,0.0449,0.0429,0.0412,0.0434,0.0401,0.0399,0.041,0.0409,0.0408,0.0407,0,0,0.0499,0.054,0.0545,0.0572,0.0585,0.0601,0.0624,0.0642,0.0664,0.0639,0.0662,0.0626,0.0596,0.0584,0.0547,0.0527,0.0511,0.0488,0.0485,0.0467,0.0456,0.0445,0.0441,0.0491,0.0491,0.0491,0.0428,0,0.0534,0.0591,0.0599,0.0652,0.0684,0.0682,0.0711,0.0723,0.0718,0.0731,0.0693,0.0693,0.0634,0.0629,0.0597,0.0536,0.0508,0.053,0.0432,0.0429,0.0422,0.044,0.0495,0.0445,0.0425,0.0425,0.0425,0,0.0573,0.061,0.0671,0.0727,0.0741,0.0766,0.0812,0.0835,0.0842,0.0841,0.0822,0.0785,0.0753,0.07,0.0605,0.0621,0.0545,0.0491,0.0487,0.0456,0.0414,0.0419,0.0441,0.0383,0.0421,0.0421,0.0421,0,0.0602,0.0662,0.0717,0.0735,0.079,0.082,0.0846,0.0867,0.0906,0.0908,0.093,0.0869,0.0854,0.0753,0.0631,0.0619,0.0524,0.0491,0.0408,0.0406,0.0425,0.0425,0.0388,0.0424,0.0425,0.0425,0.0425,0,0.0643,0.0687,0.0737,0.077,0.0846,0.0863,0.0936,0.0954,0.0989,0.105,0.0987,0.1012,0.0867,0.0793,0.0665,0.0535,0.0545,0.0423,0.0394,0.0447,0.0449,0.0375,0.033,0.0422,0.0423,0.0423,0.0424,0,0.0669,0.0701,0.0771,0.0836,0.0865,0.0918,0.1005,0.1057,0.1081,0.1156,0.1165,0.1122,0.1032,0.0877,0.0717,0.0593,0.0433,0.0407,0.0475,0.0457,0.0325,0.0282,0.0227,0.0201,0.031,0.031,0.0309,0,0.0688,0.0727,0.082,0.0869,0.0901,0.0983,0.105,0.1102,0.1165,0.1231,0.1277,0.1216,0.1202,0.0959,0.0734,0.0517,0.0432,0.0406,0.039,0.0335,0.0265,0.0259,0.0241,0.0433,0.0434,0.0434,0.0434,0,0.0723,0.0754,0.0813,0.0918,0.0995,0.1094,0.1188,0.1258,0.1336,0.141,0.1482,0.1476,0.1264,0.1087,0.0782,0.0615,0.04,0.0407,0.0341,0.0354,0.0358,0.0314,0.0447,0.0439,0.0438,0.0438,0.0438,0.0438,0.0746,0.0794,0.0874,0.0974,0.1069,0.1195,0.1287,0.1399,0.1532,0.1661,0.1642,0.1696,0.1433,0.1039,0.0791,0.0437,0.0425,0.0347,0.0295,0.0292,0.0285,0.0423,0.0388,0.0387,0.0386,0.0386,0.0385,0,0.0775,0.0836,0.0926,0.1052,0.1157,0.1209,0.1377,0.1485,0.1657,0.1795,0.1875,0.1851,0.1516,0.115,0.0668,0.0404,0.0313,0.0258,0.0273,0.0253,0.0374,0.0397,0.0377,0.0377,0.0377,0.0377,0.0377,0.0377,0.0793,0.0879,0.093,0.1103,0.1195,0.1357,0.146,0.1631,0.1779,0.2002,0.2113,0.2167,0.1973,0.1066,0.0509,0.0345,0.0197,0.0154,0.006,0.0151,0.0156,0.0161,0.0174,0.0107,0.0107,0.0012,0.0011,0.001]}],[{"header":{"parameterUnit":"m.s-1","parameterCategory":2,"la1":30.2991,"la2":30.254,"lo1":-89.0895,"lo2":-89.0444,"dy":0.0017,"dx":0.0017,"nx":28,"ny":28,"refTime":"2024-05-25T03:00:00:Z","depth":"2","parameterNumber":2,"parameterNumberName":"U-component_of_CURRENTS"},"data":[0,0,0,0,0,0,0,0,0,0,0,0,0,0,0,0,0,0,0,0,0,0,0,0,0,0,0,0,0,0,0,0,0,0,0,0,0,0,0,0,0,0,0,0,0,0,0,0,0,0,0,0,0,0,0,0,0,0,0.257,0.257,0,0.2573,0.2573,0.2573,0.2563,0.2563,0.2563,0.2562,0.2553,0.2553,0.2553,0,0,0,0,0,0,0,0,0,0,0,0,0,0.2571,0.2571,0.257,0.257,0.257,0.2574,0.2573,0.2573,0.2563,0.2563,0.2563,0.2562,0.2553,0.2553,0.2553,0,0,0,0,0,0,0,0,0,0,0,0,0,0.257,0.257,0.257,0.2567,0.2567,0.2574,0.2573,0.2573,0.2563,0.2563,0.2562,0.2562,0.2553,0.2553,0.2553,0.2557,0,0,0.2552,0.2552,0,0,0,0,0,0,0,0,0.257,0.257,0.2567,0.2567,0.2567,0.2569,0.257,0.2568,0.2563,0.2563,0.2562,0.2562,0.2558,0.2558,0.2557,0.2556,0.2556,0.2552,0.2552,0.2552,0.2552,0,0,0,0,0,0,0,0.257,0.257,0.257,0.2567,0.2567,0.2571,0.257,0.257,0.256,0.2563,0.2562,0.2565,0.2558,0.2557,0.2556,0.2556,0.2552,0.2552,0.2552,0.2552,0.2606,0.2608,0,0,0,0,0,0,0.2573,0.257,0.2569,0.257,0.257,0.2571,0.257,0.2567,0.256,0.256,0.2566,0.2565,0.2557,0.2557,0.2556,0.2594,0.2552,0.2552,0.2552,0.2605,0.2607,0.2608,0,0,0,0,0,0,0.2573,0.2572,0.2569,0.2572,0.2572,0.2572,0.2568,0.2567,0.2576,0.2563,0.2562,0.2576,0.2557,0.2556,0.2571,0.2592,0.2552,0.2552,0.2603,0.2605,0.2608,0.2647,0,0,0,0,0,0,0.2572,0.2572,0.2574,0.2572,0.2572,0.2584,0.2568,0.2568,0.2578,0.2578,0.2572,0.257,0.2557,0.2572,0.2571,0.2591,0.2551,0.2601,0.2604,0.2607,0.2644,0.2651,0.2656,0,0,0,0,0,0.2572,0.2573,0.2574,0.2575,0.2573,0.2585,0.2585,0.2583,0.2579,0.2588,0.2588,0.257,0.259,0.2573,0.2571,0.2592,0.26,0.2603,0.2607,0.2641,0.2649,0.2656,0,0,0,0,0,0,0.2574,0.2573,0.2573,0.2574,0.2585,0.2584,0.2591,0.2592,0.2598,0.2599,0.2585,0.2584,0.2609,0.2598,0.258,0.2619,0.2594,0.2597,0.2621,0.2628,0.2634,0.2644,0.2551,0,0,0,0,0,0.2576,0.2576,0.2582,0.2585,0.2591,0.2595,0.26,0.2603,0.2607,0.2609,0.2604,0.2607,0.2621,0.2623,0.263,0.2645,0.2649,0.2661,0.2667,0.2672,0.2682,0.2717,0.2727,0.262,0.262,0.262,0,0,0.2575,0.2577,0.2576,0.2586,0.2592,0.2603,0.2597,0.2612,0.2624,0.2608,0.2621,0.263,0.2633,0.2655,0.2664,0.2647,0.2704,0.2677,0.2681,0.2688,0.2722,0.2732,0.2741,0.2622,0.2622,0.2621,0,0,0.2574,0.2579,0.258,0.2593,0.261,0.2617,0.2626,0.2634,0.2642,0.2661,0.266,0.2685,0.2688,0.2702,0.2708,0.2755,0.274,0.2756,0.2787,0.2821,0.283,0.2838,0.2847,0.2856,0.2753,0.2753,0.2753,0,0.2576,0.2574,0.2584,0.2595,0.2606,0.2625,0.2635,0.2652,0.2665,0.268,0.2671,0.2713,0.2714,0.2755,0.2773,0.2769,0.2777,0.2754,0.2829,0.2837,0.2844,0.2852,0.286,0.2756,0.2755,0.2755,0.2755,0,0.2574,0.258,0.2585,0.2602,0.262,0.2634,0.266,0.2683,0.2696,0.2712,0.2758,0.277,0.2795,0.2804,0.2801,0.2859,0.2844,0.2836,0.2806,0.2857,0.2862,0.287,0.2759,0.2758,0.2757,0.2757,0,0,0.2555,0.2577,0.2579,0.2587,0.2625,0.2635,0.2675,0.2712,0.2741,0.2768,0.2805,0.2844,0.286,0.2871,0.2878,0.2909,0.2965,0.2896,0.2897,0.2899,0.3027,0.2965,0.2968,0.2969,0.2971,0.2973,0.3005,0,0.255,0.2562,0.2579,0.2597,0.2607,0.2646,0.2678,0.2721,0.276,0.2804,0.2845,0.2884,0.2883,0.2902,0.2937,0.2965,0.2991,0.2956,0.2983,0.2984,0.2918,0.2978,0.2726,0.273,0.3013,0.3014,0.3015,0,0.2538,0.255,0.2561,0.2593,0.2602,0.2622,0.2684,0.2718,0.2798,0.2828,0.2887,0.2921,0.2987,0.2971,0.3045,0.3023,0.3032,0.3045,0.3046,0.2982,0.2939,0.2728,0.2734,0.3029,0.3028,0.3027,0.3026,0,0.2508,0.2535,0.2539,0.2551,0.2595,0.2616,0.2651,0.2727,0.277,0.2854,0.29,0.2969,0.3015,0.3052,0.3091,0.3073,0.3161,0.3132,0.3082,0.3077,0.2866,0.2838,0.3182,0.3182,0.3182,0.3182,0.3182,0,0.2487,0.2491,0.2525,0.2527,0.2547,0.2595,0.2636,0.2686,0.2777,0.2829,0.2912,0.2967,0.3043,0.3104,0.3115,0.3132,0.3181,0.3103,0.3092,0.2871,0.2846,0.3107,0.3097,0.3183,0.3183,0.3183,0.3182,0,0.2442,0.2464,0.2469,0.2513,0.2526,0.2543,0.2619,0.2657,0.2754,0.283,0.2864,0.2988,0.3059,0.3123,0.3184,0.3159,0.3178,0.3166,0.2895,0.2852,0.3058,0.3051,0.3107,0.3105,0.3104,0.3103,0.3102,0,0.2417,0.2414,0.2444,0.2448,0.2463,0.2501,0.2529,0.2625,0.2674,0.283,0.286,0.2982,0.3033,0.3112,0.3093,0.3099,0.3162,0.2857,0.2781,0.3072,0.3056,0.3051,0.3046,0.2507,0.2501,0.2497,0.2493,0,0.2369,0.2379,0.2385,0.2394,0.241,0.243,0.2484,0.2519,0.2637,0.2707,0.2801,0.2866,0.2956,0.2855,0.2882,0.2846,0.2836,0.2762,0.3144,0.2575,0.2512,0.2495,0.2508,0.2451,0.2455,0.2458,0.246,0.2462,0.2332,0.2322,0.233,0.2326,0.2343,0.2348,0.2335,0.2399,0.2449,0.2518,0.265,0.2651,0.2679,0.2597,0.2516,0.2446,0.2646,0.25,0.2512,0.2529,0.2465,0.2404,0.2308,0.2311,0.2314,0.2317,0.2319,0,0.2272,0.2267,0.2264,0.2244,0.2218,0.2263,0.2285,0.2245,0.2241,0.2329,0.2376,0.2197,0.2138,0.2165,0.2003,0.2004,0.1959,0.1903,0.1815,0.186,0.1899,0.1799,0.1467,0.1464,0.1462,0.1459,0,0,0.2243,0.2206,0.2193,0.2118,0.2107,0.2039,0.2027,0.198,0.1994,0.1949,0.1923,0.2074,0.2128,0.1786,0.1732,0.1571,0.1702,0.1503,0.2191,0.2134,0.217,0.2253,0.2151,0,0,0,0,0]},{"header":{"parameterUnit":"m.s-1","parameterCategory":2,"la1":30.2991,"la2":30.254,"lo1":-89.0895,"lo2":-89.0444,"dy":0.0017,"dx":0.0017,"nx":28,"ny":28,"refTime":"2024-05-25T03:00:00:Z","depth":"2","parameterNumber":3,"parameterNumberName":"V-component_of_CURRENTS"},"data":[0,0,0,0,0,0,0,0,0,0,0,0,0,0,0,0,0,0,0,0,0,0,0,0,0,0,0,0,0,0,0,0,0,0,0,0,0,0,0,0,0,0,0,0,0,0,0,0,0,0,0,0,0,0,0,0,0,0,0.0297,0.0297,0,0.0276,0.0275,0.0275,0.0257,0.0256,0.0256,0.0256,0.0215,0.0214,0.0213,0,0,0,0,0,0,0,0,0,0,0,0,0,0.0283,0.0284,0.0297,0.0297,0.0297,0.0276,0.0275,0.0275,0.0257,0.0256,0.0256,0.0256,0.0216,0.0214,0.0213,0,0,0,0,0,0,0,0,0,0,0,0,0,0.0277,0.0284,0.0297,0.0286,0.0285,0.0276,0.0275,0.0275,0.0257,0.0256,0.0256,0.0256,0.0216,0.0215,0.0213,0.0207,0,0,0.0209,0.0208,0,0,0,0,0,0,0,0,0.0278,0.0278,0.0288,0.0287,0.0285,0.0269,0.0255,0.0252,0.0257,0.0266,0.0256,0.0256,0.0232,0.023,0.0225,0.0205,0.0204,0.0208,0.0208,0.0207,0.0207,0,0,0,0,0,0,0,0.0278,0.0278,0.0288,0.0287,0.0286,0.0268,0.0268,0.0254,0.0249,0.0265,0.0264,0.0263,0.0231,0.0226,0.0224,0.0203,0.0209,0.0207,0.0206,0.0206,0.0183,0.0183,0,0,0,0,0,0,0.0285,0.0279,0.0288,0.0287,0.0282,0.0269,0.0268,0.0274,0.025,0.0246,0.0264,0.0263,0.0229,0.0225,0.0222,0.0234,0.0207,0.0206,0.0205,0.0183,0.0183,0.0183,0,0,0,0,0,0,0.0285,0.0287,0.0289,0.0283,0.0282,0.027,0.0276,0.0274,0.0273,0.0249,0.0245,0.0267,0.0229,0.0224,0.0217,0.0231,0.0205,0.0204,0.0182,0.0183,0.0183,0.0244,0,0,0,0,0,0,0.0285,0.0287,0.0294,0.0284,0.0283,0.0294,0.0276,0.0273,0.0273,0.0272,0.025,0.0246,0.0228,0.0219,0.0215,0.0229,0.0202,0.0182,0.0183,0.0183,0.0242,0.0246,0.025,0,0,0,0,0,0.0285,0.0298,0.0294,0.0295,0.0293,0.0295,0.0293,0.0282,0.0274,0.028,0.0263,0.0247,0.022,0.0219,0.0214,0.0227,0.0182,0.0182,0.0183,0.024,0.0245,0.025,0,0,0,0,0,0,0.0294,0.0297,0.0293,0.0305,0.0304,0.0292,0.0297,0.0288,0.0279,0.0278,0.0252,0.0246,0.0244,0.0225,0.0225,0.022,0.0198,0.0197,0.0242,0.0247,0.0252,0.0268,0.0201,0,0,0,0,0,0.03,0.0312,0.0308,0.0319,0.0321,0.0309,0.0309,0.0303,0.0294,0.029,0.0273,0.0254,0.0242,0.0238,0.0221,0.0222,0.0199,0.0226,0.023,0.0234,0.0244,0.022,0.0223,0.0185,0.0185,0.0185,0,0,0.0305,0.0309,0.0315,0.0322,0.0319,0.0331,0.0309,0.0315,0.0327,0.0287,0.0294,0.0269,0.0244,0.0244,0.0242,0.0232,0.0232,0.0235,0.0239,0.0246,0.0221,0.0224,0.0228,0.0186,0.0186,0.0186,0,0,0.0327,0.0328,0.0346,0.0351,0.0356,0.035,0.0355,0.0348,0.0348,0.035,0.0323,0.0309,0.0291,0.0277,0.0268,0.0286,0.0254,0.0279,0.0319,0.0296,0.0299,0.0302,0.0276,0.0276,0.0284,0.0284,0.0284,0,0.0332,0.0358,0.0351,0.0371,0.0382,0.0363,0.0387,0.0384,0.0374,0.038,0.0362,0.0334,0.0309,0.0311,0.0316,0.0298,0.0277,0.0304,0.0303,0.0305,0.0307,0.0279,0.0278,0.0287,0.0287,0.0286,0.0286,0,0.037,0.039,0.0403,0.0424,0.0432,0.045,0.0448,0.0455,0.0447,0.044,0.0439,0.0401,0.0387,0.0373,0.0351,0.0352,0.0331,0.031,0.0293,0.0314,0.0284,0.0282,0.0291,0.029,0.0289,0.0289,0,0,0.0386,0.0422,0.0428,0.0454,0.0465,0.048,0.0501,0.0518,0.0539,0.0515,0.0537,0.0501,0.0474,0.0461,0.0425,0.0403,0.0389,0.0367,0.0364,0.0348,0.0337,0.0327,0.0323,0.0369,0.0369,0.0369,0.0311,0,0.042,0.0474,0.048,0.0531,0.056,0.0558,0.0585,0.0595,0.0591,0.0603,0.0565,0.0565,0.051,0.0506,0.0474,0.0413,0.0387,0.0407,0.0313,0.031,0.0304,0.0321,0.0332,0.0282,0.0308,0.0308,0.0308,0,0.0458,0.0492,0.055,0.0603,0.0617,0.064,0.0684,0.0706,0.0711,0.071,0.0692,0.0656,0.0624,0.0573,0.0481,0.0496,0.0424,0.037,0.0366,0.0337,0.0297,0.0264,0.0277,0.0303,0.0304,0.0304,0.0304,0,0.0487,0.0544,0.0597,0.0614,0.0664,0.0694,0.0719,0.0738,0.0775,0.0776,0.0798,0.0738,0.0725,0.0627,0.0509,0.0496,0.0403,0.037,0.0292,0.029,0.0271,0.0268,0.0306,0.0306,0.0306,0.0306,0.0306,0,0.0528,0.057,0.0618,0.0648,0.0723,0.0738,0.0809,0.0827,0.0859,0.0917,0.0856,0.0879,0.0738,0.0665,0.0541,0.0416,0.0425,0.0306,0.0279,0.0292,0.0291,0.0286,0.0285,0.0304,0.0304,0.0305,0.0305,0,0.0555,0.0584,0.0652,0.0714,0.0742,0.0795,0.0879,0.0929,0.0952,0.1023,0.1033,0.0987,0.09,0.0749,0.0593,0.0473,0.0343,0.0293,0.0317,0.0294,0.0234,0.0236,0.0202,0.0202,0.0201,0.0201,0.02,0,0.0574,0.0612,0.0701,0.0749,0.0781,0.0861,0.0927,0.0976,0.1035,0.1096,0.1139,0.1079,0.106,0.0824,0.0602,0.0391,0.0352,0.025,0.0227,0.0249,0.0225,0.0228,0.0231,0.0219,0.0219,0.0218,0.0218,0,0.0609,0.064,0.0697,0.08,0.0876,0.0971,0.1062,0.1127,0.12,0.1268,0.1333,0.1321,0.1111,0.0903,0.0608,0.0453,0.0283,0.0239,0.0258,0.025,0.0261,0.0239,0.0242,0.0216,0.0217,0.0217,0.0217,0.0217,0.0634,0.068,0.0759,0.0857,0.095,0.107,0.1158,0.126,0.1383,0.1485,0.1466,0.1455,0.1203,0.0837,0.0566,0.0276,0.0302,0.0184,0.0185,0.0187,0.0206,0.0216,0.0166,0.0166,0.0166,0.0166,0.0166,0,0.0663,0.0723,0.0811,0.0933,0.1034,0.1088,0.1246,0.1335,0.149,0.1572,0.1628,0.1389,0.1157,0.086,0.0451,0.021,0.0176,0.0105,0.0123,0.0128,0.0131,0.0147,0.0091,0.009,0.0089,0.0088,0,0,0.0681,0.0764,0.0813,0.098,0.1072,0.1226,0.1324,0.1458,0.1553,0.1639,0.1635,0.1591,0.1252,0.093,0.0593,0.0351,0.0289,0.0286,0.0375,0.0443,0.0449,0.0208,0.0242,0,0,0,0,0]}],[{"header":{"parameterUnit":"m.s-1","parameterCategory":2,"la1":30.2991,"la2":30.254,"lo1":-89.0895,"lo2":-89.0444,"dy":0.0017,"dx":0.0017,"nx":28,"ny":28,"refTime":"2024-05-25T03:00:00:Z","depth":"4","parameterNumber":2,"parameterNumberName":"U-component_of_CURRENTS"},"data":[0,0,0,0,0,0,0,0,0,0,0,0,0,0,0,0,0,0,0,0,0,0,0,0,0,0,0,0,0,0,0,0,0,0,0,0,0,0,0,0,0,0,0,0,0,0,0,0,0,0,0,0,0,0,0,0,0,0,0.1657,0.1657,0,0.1699,0.1699,0.17,0.1745,0.1746,0.1747,0.1747,0.1805,0.1806,0.1807,0,0,0,0,0,0,0,0,0,0,0,0,0,0.1615,0.1615,0.1657,0.1657,0.1658,0.1699,0.1699,0.17,0.1745,0.1746,0.1747,0.1748,0.1805,0.1806,0.1807,0,0,0,0,0,0,0,0,0,0,0,0,0,0.1641,0.1615,0.1657,0.1687,0.169,0.1699,0.1699,0.17,0.1745,0.1746,0.1747,0.1748,0.1805,0.1806,0.1807,0.179,0,0,0.1811,0.1811,0,0,0,0,0,0,0,0,0.1639,0.1642,0.1682,0.1685,0.1688,0.1719,0.1706,0.1731,0.1744,0.1722,0.1747,0.1749,0.1778,0.1782,0.1784,0.1793,0.1795,0.1811,0.1811,0.1812,0.1812,0,0,0,0,0,0,0,0.1637,0.164,0.1672,0.1682,0.1686,0.1698,0.1703,0.1711,0.1742,0.1724,0.1728,0.1735,0.178,0.1783,0.1786,0.1796,0.1811,0.1812,0.1812,0.1813,0.1905,0.1906,0,0,0,0,0,0,0.1634,0.1639,0.167,0.1673,0.1668,0.1698,0.1703,0.1707,0.1742,0.1748,0.1734,0.1737,0.178,0.1785,0.1788,0.1866,0.1812,0.1813,0.1814,0.1903,0.1905,0.1907,0,0,0,0,0,0,0.1633,0.1636,0.1669,0.1658,0.1664,0.1698,0.1701,0.1707,0.1748,0.1749,0.1756,0.1773,0.1781,0.1787,0.183,0.1865,0.1814,0.1815,0.1901,0.1903,0.1906,0.1959,0,0,0,0,0,0,0.1631,0.1636,0.1655,0.1658,0.1664,0.1698,0.17,0.1707,0.1749,0.1754,0.1784,0.1789,0.1783,0.1829,0.1831,0.1865,0.1816,0.1899,0.1902,0.1905,0.1955,0.1963,0.197,0,0,0,0,0,0.163,0.1644,0.1656,0.1661,0.1684,0.17,0.1704,0.1731,0.175,0.1772,0.1797,0.179,0.1851,0.1831,0.1834,0.1869,0.1897,0.1901,0.1905,0.1952,0.1962,0.197,0,0,0,0,0,0,0.1637,0.165,0.1663,0.1682,0.1703,0.1709,0.1735,0.1751,0.1787,0.1806,0.1807,0.1813,0.1867,0.1861,0.1838,0.1906,0.1875,0.1879,0.191,0.1919,0.1926,0.1933,0.1817,0,0,0,0,0,0.1647,0.1664,0.1676,0.1697,0.171,0.1731,0.1749,0.1767,0.179,0.1809,0.1828,0.1853,0.1877,0.1894,0.1912,0.1944,0.1943,0.1971,0.1978,0.1984,0.1993,0.2025,0.2036,0.1919,0.1919,0.1919,0,0,0.1656,0.1667,0.1678,0.1702,0.1722,0.1741,0.1746,0.1783,0.181,0.1808,0.1863,0.1884,0.1894,0.1934,0.1957,0.1938,0.2017,0.1989,0.1994,0.2,0.203,0.2042,0.2051,0.1922,0.1922,0.1921,0,0,0.1668,0.1695,0.1709,0.1729,0.1766,0.1776,0.1796,0.1824,0.1854,0.1898,0.191,0.1954,0.1985,0.2,0.2009,0.2068,0.2058,0.2081,0.212,0.2151,0.2161,0.2169,0.2177,0.2186,0.208,0.208,0.208,0,0.1685,0.1698,0.1719,0.1738,0.176,0.1796,0.1818,0.1847,0.189,0.1919,0.1929,0.2001,0.2014,0.206,0.2087,0.2085,0.2096,0.2082,0.216,0.2168,0.2176,0.2182,0.2191,0.2083,0.2083,0.2083,0.2082,0,0.1692,0.172,0.1734,0.1768,0.1796,0.1825,0.1861,0.1905,0.1948,0.1975,0.2049,0.2071,0.2114,0.2129,0.2128,0.2193,0.218,0.2167,0.2134,0.2191,0.2194,0.2202,0.2088,0.2087,0.2086,0.2085,0,0,0.168,0.1729,0.1739,0.176,0.1817,0.1834,0.1893,0.1945,0.1992,0.2049,0.2105,0.2161,0.219,0.2204,0.2215,0.2245,0.2309,0.2238,0.2239,0.224,0.2371,0.2213,0.2206,0.2315,0.2317,0.2319,0.2348,0,0.1684,0.1718,0.1746,0.1792,0.1811,0.1867,0.1913,0.1973,0.2032,0.2097,0.2147,0.2208,0.2212,0.2248,0.2282,0.2309,0.2335,0.2301,0.2321,0.2321,0.2169,0.2212,0.2325,0.2355,0.2356,0.2358,0.2359,0,0.1674,0.1701,0.1742,0.1801,0.1818,0.1859,0.1945,0.1993,0.209,0.2138,0.2214,0.2257,0.2331,0.232,0.2393,0.2376,0.2385,0.2393,0.2394,0.2233,0.2178,0.2288,0.2373,0.2372,0.2371,0.237,0.2369,0,0.1634,0.1695,0.1729,0.1751,0.1824,0.1869,0.1923,0.2018,0.207,0.2181,0.2236,0.2316,0.2374,0.2409,0.2445,0.2431,0.2507,0.248,0.234,0.2329,0.2439,0.2429,0.2525,0.2525,0.2525,0.2524,0.2524,0,0.1604,0.1636,0.1722,0.1739,0.1793,0.186,0.1934,0.2,0.2106,0.2163,0.2266,0.2313,0.2406,0.2459,0.2469,0.2429,0.2527,0.2352,0.2329,0.2459,0.2452,0.2444,0.2434,0.2526,0.2525,0.2525,0.2525,0,0.1544,0.1601,0.1643,0.1737,0.1772,0.1816,0.1933,0.1979,0.2099,0.2179,0.2222,0.2342,0.2397,0.246,0.2514,0.2441,0.2427,0.2388,0.2526,0.251,0.2219,0.2212,0.2218,0.2213,0.2208,0.2204,0.2201,0,0.1509,0.1528,0.1631,0.1661,0.1709,0.179,0.1837,0.1961,0.2007,0.2167,0.2186,0.23,0.2357,0.2304,0.2381,0.2372,0.2346,0.2315,0.226,0.2212,0.219,0.219,0.2189,0.2194,0.2193,0.2192,0.2191,0,0.1443,0.1497,0.1533,0.1597,0.1654,0.1701,0.1785,0.1806,0.1937,0.2067,0.2092,0.2117,0.217,0.2194,0.2211,0.2203,0.232,0.2267,0.2276,0.2224,0.2183,0.2166,0.217,0.2175,0.2177,0.2179,0.218,0,0.1401,0.1409,0.1469,0.1507,0.1574,0.1587,0.1644,0.1687,0.1746,0.1916,0.1915,0.2032,0.2142,0.2107,0.2124,0.2104,0.2061,0.1977,0.2,0.2018,0.1938,0.1857,0.173,0,0,0,0,0,0.1346,0.1339,0.1371,0.1396,0.1457,0.1497,0.159,0.165,0.1778,0.1741,0.1822,0.1857,0.1873,0.1934,0.1871,0.2036,0.2076,0.1953,0.1993,0.2089,0.2107,0.2031,0,0,0,0,0,0,0.1307,0.1336,0.1332,0.1295,0.1296,0.1345,0.1402,0.1491,0.1474,0.1614,0.1633,0.1735,0.1784,0.1889,0.1834,0.1851,0.1833,0.2027,0.2021,0.2079,0.2095,0.211,0.2038,0,0,0,0,0]},{"header":{"parameterUnit":"m.s-1","parameterCategory":2,"la1":30.2991,"la2":30.254,"lo1":-89.0895,"lo2":-89.0444,"dy":0.0017,"dx":0.0017,"nx":28,"ny":28,"refTime":"2024-05-25T03:00:00:Z","depth":"4","parameterNumber":3,"parameterNumberName":"V-component_of_CURRENTS"},"data":[0,0,0,0,0,0,0,0,0,0,0,0,0,0,0,0,0,0,0,0,0,0,0,0,0,0,0,0,0,0,0,0,0,0,0,0,0,0,0,0,0,0,0,0,0,0,0,0,0,0,0,0,0,0,0,0,0,0,0.0141,0.0141,0,0.0127,0.0127,0.0126,0.0116,0.0116,0.0116,0.0116,0.0087,0.0086,0.0086,0,0,0,0,0,0,0,0,0,0,0,0,0,0.0132,0.0132,0.0141,0.0141,0.0141,0.0127,0.0127,0.0126,0.0116,0.0116,0.0116,0.0116,0.0087,0.0086,0.0086,0,0,0,0,0,0,0,0,0,0,0,0,0,0.0128,0.0132,0.0141,0.0135,0.0134,0.0127,0.0127,0.0126,0.0116,0.0116,0.0116,0.0116,0.0088,0.0087,0.0085,0.0079,0,0,0.0082,0.0082,0,0,0,0,0,0,0,0,0.0128,0.0128,0.0136,0.0135,0.0134,0.0124,0.0113,0.011,0.0116,0.0122,0.0116,0.0116,0.0098,0.0096,0.0093,0.0078,0.0077,0.0082,0.0081,0.0081,0.008,0,0,0,0,0,0,0,0.0128,0.0129,0.0135,0.0135,0.0135,0.0123,0.0122,0.0112,0.011,0.0122,0.0121,0.0121,0.0098,0.0094,0.0092,0.0076,0.0082,0.0081,0.008,0.008,0.0063,0.0063,0,0,0,0,0,0,0.0133,0.0129,0.0135,0.0134,0.0132,0.0123,0.0123,0.0127,0.0111,0.0108,0.0121,0.012,0.0096,0.0094,0.0091,0.0102,0.0081,0.008,0.0079,0.0063,0.0063,0.0063,0,0,0,0,0,0,0.0133,0.0134,0.0136,0.0131,0.0131,0.0124,0.0128,0.0127,0.0129,0.011,0.0107,0.0125,0.0096,0.0093,0.0089,0.0101,0.0079,0.0078,0.0063,0.0063,0.0063,0.0112,0,0,0,0,0,0,0.0133,0.0134,0.014,0.0132,0.0131,0.014,0.0128,0.0126,0.0128,0.0128,0.0113,0.011,0.0096,0.0091,0.0088,0.0099,0.0077,0.0062,0.0063,0.0063,0.011,0.0114,0.0118,0,0,0,0,0,0.0133,0.0142,0.0141,0.0141,0.014,0.0141,0.0139,0.0133,0.0129,0.0134,0.0123,0.011,0.0091,0.009,0.0087,0.0097,0.0062,0.0063,0.0063,0.0109,0.0113,0.0117,0,0,0,0,0,0,0.014,0.0142,0.014,0.0149,0.0149,0.0139,0.0144,0.0138,0.0134,0.0134,0.0114,0.0111,0.0111,0.0096,0.0095,0.0093,0.0074,0.0074,0.011,0.0114,0.0118,0.0131,0.0076,0,0,0,0,0,0.0145,0.0154,0.0151,0.016,0.0161,0.0154,0.0154,0.0151,0.0144,0.0143,0.0131,0.0118,0.0109,0.0106,0.0094,0.0094,0.0076,0.0098,0.0101,0.0104,0.0112,0.0091,0.0094,0.0065,0.0065,0.0065,0,0,0.015,0.0153,0.0157,0.0162,0.0161,0.017,0.0154,0.016,0.017,0.014,0.0149,0.013,0.0111,0.0112,0.011,0.0102,0.0102,0.0105,0.0108,0.0114,0.0092,0.0095,0.0098,0.0066,0.0066,0.0065,0,0,0.0166,0.0168,0.0182,0.0186,0.019,0.0186,0.0191,0.0187,0.0189,0.0193,0.0173,0.0163,0.015,0.0139,0.0131,0.0147,0.0121,0.0141,0.0173,0.0153,0.0156,0.0158,0.0138,0.0137,0.0145,0.0145,0.0145,0,0.0172,0.0191,0.0185,0.0201,0.021,0.0197,0.0216,0.0215,0.021,0.0216,0.0203,0.0184,0.0164,0.0166,0.017,0.0156,0.014,0.016,0.0159,0.016,0.0161,0.014,0.0139,0.0147,0.0147,0.0147,0.0147,0,0.0198,0.0215,0.0225,0.0242,0.025,0.0264,0.0264,0.0272,0.027,0.0265,0.0267,0.0237,0.0228,0.0216,0.0199,0.0199,0.0183,0.0165,0.0151,0.0167,0.0144,0.0142,0.0151,0.015,0.0149,0.0149,0,0,0.0209,0.0239,0.0243,0.0265,0.0276,0.0289,0.0308,0.0323,0.0342,0.0326,0.0346,0.0317,0.0298,0.0288,0.026,0.0239,0.0227,0.021,0.0208,0.0195,0.0184,0.017,0.0167,0.021,0.021,0.021,0.0164,0,0.0234,0.0275,0.0282,0.0324,0.0347,0.035,0.0375,0.0386,0.0384,0.0397,0.0368,0.0371,0.0327,0.0326,0.0298,0.0248,0.0224,0.0241,0.0165,0.0162,0.0153,0.0165,0.0209,0.0163,0.0162,0.0162,0.0162,0,0.026,0.0287,0.0334,0.0381,0.0393,0.0416,0.0456,0.0477,0.0485,0.0487,0.0475,0.0447,0.0422,0.0381,0.0304,0.0317,0.0258,0.0211,0.0208,0.0179,0.0146,0.0141,0.0158,0.0158,0.0158,0.0159,0.0159,0,0.0277,0.0325,0.0369,0.0383,0.0429,0.0459,0.0485,0.0505,0.0538,0.0544,0.0564,0.0516,0.0508,0.0426,0.0328,0.0318,0.0238,0.0211,0.0142,0.014,0.0143,0.0142,0.0156,0.0156,0.0156,0.0157,0.0157,0,0.0302,0.0338,0.0385,0.041,0.0477,0.0495,0.0559,0.0578,0.0611,0.0657,0.0616,0.063,0.052,0.0459,0.0355,0.0248,0.0258,0.0153,0.013,0.0164,0.0166,0.0142,0.0141,0.0155,0.0155,0.0156,0.0156,0,0.0315,0.0343,0.04,0.046,0.0489,0.0538,0.0619,0.0662,0.0689,0.0746,0.0757,0.0721,0.0646,0.0525,0.0392,0.0295,0.0184,0.0141,0.0194,0.0174,0.0091,0.0092,0.0062,0.0061,0.006,0.006,0.0059,0,0.0324,0.0355,0.0439,0.0482,0.0514,0.059,0.065,0.0701,0.0748,0.0801,0.0832,0.0784,0.0741,0.0553,0.0412,0.0219,0.0182,0.0117,0.0093,0.0101,0.0082,0.0085,0.0088,0.0058,0.0058,0.0058,0.0058,0,0.0341,0.0373,0.0421,0.0513,0.0584,0.0668,0.075,0.0791,0.0857,0.0882,0.0895,0.0806,0.0723,0.0561,0.0414,0.0271,0.0154,0.0109,0.0109,0.0086,0.0097,0.0079,0.0082,0.0056,0.0056,0.0056,0.0056,0,0.0355,0.039,0.0459,0.0542,0.0634,0.0722,0.0765,0.0829,0.0883,0.0932,0.0932,0.0846,0.0793,0.0588,0.0453,0.0313,0.0264,0.0196,0.019,0.0191,0.0233,0.0265,0.0264,0,0,0,0,0,0.0365,0.0409,0.0482,0.0577,0.0667,0.0726,0.0827,0.0862,0.0924,0.0939,0.0937,0.0859,0.0675,0.0599,0.0457,0.042,0.0228,0.0245,0.0143,0.0043,0.0045,0.007,0,0,0,0,0,0,0.0372,0.0438,0.0479,0.0594,0.066,0.0769,0.0836,0.0877,0.0884,0.0918,0.0826,0.0798,0.062,0.0754,0.0446,0.0407,0.0315,0.0167,0.0163,0.0041,0.0044,0.0046,0.0072,0,0,0,0,0]}]]